Date String (YYYY-MM-DD hh:mm:ss) UTC,Instrument flags,Ambient pressure (hPa),Sample flow (lpm),Bypass flow (lpm),Sample temperature (°C),Ambient temperature (°C),ASC tube jacket temperature (°C),LED temperature (°C),Box temperature (°C),Sample RH (%),Span deviation,Mass concentration (μg/m³),Mass concentration (μg/m³),Mass concentration (μg/m³)
DateTimeUTC,F1_M11,P_M11,Q1_M11,Q2_M11,T1_M11,T2_M11,T3_M11,T4_M11,T5_M11,U1_M11,ZSPAN_M11,X0_M11,X2_M11,X1_M11
2022-10-05 07:00:00,,0832.1,4.99,0.00,29.3,27.8,00.0,38.0,31.1,25.4,0000.0,0010.69,0006.25,0005.80
2022-10-05 07:01:00,,0832.1,5.01,0.00,29.3,27.8,00.0,38.0,31.1,25.7,0000.0,0010.68,0006.24,0005.79
2022-10-05 07:02:00,,0832.1,5.00,0.00,29.3,27.8,00.0,38.0,31.1,26.8,0000.0,0010.77,0006.27,0005.80
2022-10-05 07:03:00,,0832.0,4.99,0.00,29.3,27.8,00.0,38.0,31.1,26.2,0000.0,0010.80,0006.29,0005.82
2022-10-05 07:04:00,,0832.0,5.01,0.00,29.3,27.8,00.0,38.0,31.1,25.7,0000.0,0010.86,0006.33,0005.84
2022-10-05 07:05:00,,0832.1,4.98,0.00,29.3,27.8,00.0,38.0,31.1,26.1,0000.0,0011.15,0006.43,0005.90
2022-10-05 07:06:00,,0832.1,5.01,0.00,29.3,27.8,00.0,38.0,31.1,26.2,0000.0,0010.97,0006.47,0005.95
2022-10-05 07:07:00,,0832.1,5.00,0.00,29.3,27.8,00.0,38.0,31.1,26.2,0000.0,0010.41,0006.53,0006.04
2022-10-05 07:08:00,,0832.1,4.99,0.00,29.3,27.8,00.0,38.0,31.2,26.0,0000.0,0010.43,0006.58,0006.11
2022-10-05 07:09:00,,0832.1,5.01,0.00,29.3,27.8,00.0,38.0,31.1,26.0,0000.0,0010.56,0006.66,0006.18
2022-10-05 07:10:00,,0832.1,4.99,0.00,29.3,27.8,00.0,38.0,31.1,25.9,0000.0,0010.27,0006.72,0006.23
2022-10-05 07:11:00,,0832.1,5.01,0.00,29.3,27.8,00.0,38.0,31.1,25.7,0000.0,0009.96,0006.71,0006.26
2022-10-05 07:12:00,,0832.1,5.00,0.00,29.3,27.8,00.0,38.0,31.1,25.7,0000.0,0009.99,0006.72,0006.27
2022-10-05 07:13:00,,0832.1,4.99,0.00,29.3,27.8,00.0,38.0,31.1,25.8,0000.0,0009.97,0006.76,0006.28
2022-10-05 07:14:00,,0832.1,5.00,0.00,29.3,27.8,00.0,38.0,31.1,25.8,0000.0,0009.95,0006.77,0006.30
2022-10-05 07:15:00,,0832.1,5.00,0.00,29.3,27.8,00.0,38.0,31.1,25.7,0000.0,0010.00,0006.78,0006.30
2022-10-05 07:16:00,,0832.1,5.00,0.00,29.3,27.8,00.0,38.0,31.1,25.7,0000.0,0009.86,0006.72,0006.27
2022-10-05 07:17:00,,0832.1,5.00,0.00,29.3,27.8,00.0,38.0,31.1,25.6,0000.0,0009.84,0006.66,0006.21
2022-10-05 07:18:00,,0832.1,5.01,0.00,29.3,27.8,00.0,38.0,31.1,25.5,0000.0,0009.87,0006.59,0006.12
2022-10-05 07:19:00,,0832.1,4.98,0.00,29.3,27.8,00.0,38.0,31.1,25.3,0000.0,0009.81,0006.51,0006.04
2022-10-05 07:20:00,,0832.1,5.00,0.00,29.3,27.8,00.0,38.0,31.1,25.2,0000.0,0009.87,0006.42,0005.95
2022-10-05 07:21:00,,0832.2,5.01,0.00,29.3,27.8,00.0,38.0,31.1,25.1,0000.0,0010.28,0006.35,0005.88
2022-10-05 07:22:00,,0832.2,4.99,0.00,29.3,27.7,00.0,38.0,31.1,25.1,0000.0,0010.28,0006.32,0005.84
2022-10-05 07:23:00,,0832.1,5.00,0.00,29.3,27.7,00.0,38.0,31.1,25.3,0000.0,0010.20,0006.29,0005.83
2022-10-05 07:24:00,,0832.2,5.01,0.00,29.3,27.8,00.0,38.0,31.1,25.5,0000.0,0010.09,0006.25,0005.82
2022-10-05 07:25:00,,0832.2,5.00,0.00,29.3,27.8,00.0,38.0,31.1,25.5,0000.0,0010.07,0006.23,0005.81
2022-10-05 07:26:00,,0832.3,4.99,0.00,29.3,27.8,00.0,38.0,31.1,25.4,0000.0,0010.07,0006.22,0005.81
2022-10-05 07:27:00,,0832.2,5.01,0.00,29.3,27.7,00.0,38.0,31.1,25.3,0000.0,0009.96,0006.18,0005.78
2022-10-05 07:28:00,,0832.3,4.99,0.00,29.3,27.7,00.0,38.0,31.1,25.1,0000.0,0009.84,0006.14,0005.76
2022-10-05 07:29:00,,0832.3,4.99,0.00,29.3,27.8,00.0,38.0,31.1,24.7,0000.0,0009.72,0006.11,0005.74
2022-10-05 07:30:00,,0832.3,5.01,0.00,29.3,27.8,00.0,38.0,31.1,24.3,0000.0,0009.70,0006.08,0005.71
2022-10-05 07:31:00,,0832.3,5.00,0.00,29.3,27.8,00.0,38.0,31.1,24.1,0000.0,0009.55,0006.07,0005.71
2022-10-05 07:32:00,,0832.3,5.00,0.00,29.3,27.8,00.0,38.0,31.1,24.1,0000.0,0009.08,0006.05,0005.68
2022-10-05 07:33:00,,0832.2,5.00,0.00,29.3,27.8,00.0,38.0,31.1,24.1,0000.0,0008.99,0006.01,0005.64
2022-10-05 07:34:00,,0832.2,4.99,0.00,29.3,27.8,00.0,38.0,31.1,24.0,0000.0,0009.24,0005.93,0005.59
2022-10-05 07:35:00,,0832.2,5.01,0.00,29.3,27.8,00.0,38.0,31.1,24.0,0000.0,0009.43,0005.89,0005.53
2022-10-05 07:36:00,,0832.3,5.00,0.00,29.3,27.8,00.0,38.0,31.1,23.9,0000.0,0009.36,0005.83,0005.48
2022-10-05 07:37:00,,0832.3,4.99,0.00,29.3,27.8,00.0,38.0,31.1,23.9,0000.0,0009.30,0005.79,0005.44
2022-10-05 07:38:00,,0832.3,5.00,0.00,29.3,27.8,00.0,38.0,31.1,23.8,0000.0,0009.30,0005.77,0005.40
2022-10-05 07:39:00,,0832.3,5.00,0.00,29.3,27.8,00.0,38.0,31.1,23.8,0000.0,0009.30,0005.76,0005.39
2022-10-05 07:40:00,,0832.3,4.99,0.00,29.3,27.8,00.0,38.0,31.1,23.8,0000.0,0009.32,0005.76,0005.38
2022-10-05 07:41:00,,0832.3,5.00,0.00,29.3,27.9,00.0,38.0,31.1,23.7,0000.0,0009.29,0005.76,0005.39
2022-10-05 07:42:00,,0832.3,4.99,0.00,29.3,27.9,00.0,38.0,31.1,23.8,0000.0,0009.35,0005.77,0005.40
2022-10-05 07:43:00,,0832.3,5.00,0.00,29.3,27.9,00.0,38.0,31.1,23.8,0000.0,0009.65,0005.78,0005.42
2022-10-05 07:44:00,,0832.3,5.02,0.00,29.3,27.9,00.0,38.0,31.1,23.8,0000.0,0009.96,0005.83,0005.45
2022-10-05 07:45:00,,0832.3,4.99,0.00,29.3,27.9,00.0,38.0,31.2,23.8,0000.0,0009.75,0005.88,0005.47
2022-10-05 07:46:00,,0832.3,5.01,0.00,29.3,27.8,00.0,38.0,31.2,23.9,0000.0,0009.99,0005.90,0005.48
2022-10-05 07:47:00,,0832.3,5.00,0.00,29.3,27.8,00.0,38.0,31.1,23.9,0000.0,0010.02,0005.91,0005.51
2022-10-05 07:48:00,,0832.4,5.00,0.00,29.3,27.8,00.0,38.0,31.1,23.9,0000.0,0010.04,0005.92,0005.52
2022-10-05 07:49:00,,0832.4,5.00,0.00,29.3,27.8,00.0,38.0,31.1,23.8,0000.0,0010.03,0005.93,0005.54
2022-10-05 07:50:00,,0832.3,5.00,0.00,29.3,27.8,00.0,38.0,31.2,23.7,0000.0,0010.13,0005.94,0005.56
2022-10-05 07:51:00,,0832.3,5.01,0.00,29.3,27.8,00.0,38.0,31.2,23.7,0000.0,0010.12,0005.93,0005.56
2022-10-05 07:52:00,,0832.3,5.00,0.00,29.3,27.8,00.0,38.0,31.1,23.7,0000.0,0010.07,0005.92,0005.57
2022-10-05 07:53:00,,0832.3,4.99,0.00,29.3,27.8,00.0,38.0,31.2,23.8,0000.0,0009.96,0005.90,0005.56
2022-10-05 07:54:00,,0832.3,5.01,0.00,29.3,27.8,00.0,38.0,31.2,23.9,0000.0,0009.68,0005.89,0005.57
2022-10-05 07:55:00,,0832.3,4.99,0.00,29.3,27.8,00.0,38.0,31.2,23.8,0000.0,0009.30,0005.89,0005.58
2022-10-05 07:56:00,,0832.3,5.00,0.00,29.3,27.8,00.0,38.0,31.2,23.7,0000.0,0009.32,0005.88,0005.58
2022-10-05 07:57:00,,0832.3,5.01,0.00,29.3,27.8,00.0,38.0,31.2,23.6,0000.0,0008.97,0005.88,0005.58
2022-10-05 07:58:00,,0832.2,4.99,0.00,29.3,27.8,00.0,38.0,31.2,23.6,0000.0,0008.93,0005.88,0005.57
2022-10-05 07:59:00,,0832.2,5.00,0.00,29.3,27.8,00.0,38.0,31.2,23.5,0000.0,0009.00,0005.86,0005.55
